Location: Unspecified
(47.9110°N, 14.3980°E)
Time: 00:08:43
(UTC+00:00)

Cosmos 1697 Rocket - Pass Details

Date: 06 August 2020
Orbit: 834 x 842 km, 71.0° (Epoch: 23 September)

Event Time Altitude Azimuth Distance (km) Brightness Sun altitude
Rises 19:39:51 0° 334° (NNW) 3,392 7.2 -10.7°
Reaches altitude 10° 19:42:20 10° 337° (NNW) 2,454 6.2 -11.0°
Maximum altitude 19:47:55 62° 59° (ENE) 935 2.9 -11.7°
Enters shadow 19:52:16 17° 137° (SE) 2,007 4.0 -12.3°
